Change the Weather History Date:

Wednesday, May 14, 2014

  Actual Average Record
Temperature  
Mean Temperature 62 °F -  
Max Temperature 80 °F 74 °F 80 °F (2013)
Min Temperature 44 °F 45 °F 41 °F (2012)
Degree Days  
Heating Degree Days 3    
Growing Degree Days 12 (Base 50)    
Moisture  
Dew Point 17 °F    
Average Humidity 19    
Maximum Humidity 35    
Minimum Humidity 8    
Precipitation  
Precipitation 0.00 in - - ()
Sea Level Pressure  
Sea Level Pressure 30.28 in    
Wind  
Wind Speed 12 mph (ESE)    
Max Wind Speed 24 mph    
Max Gust Speed 34 mph    
Visibility 10 miles    
Events      
Averages and records for this station are not official NWS values.
T = Trace of Precipitation, MM = Missing Value Source: NWS Daily Summary

Daily Weather History Graph

Daily Weather History Graph

Search for Another Location

Airport or City:

Trip Planner

Search our weather history database for the weather conditions in past years. The results will help you decide how hot, cold, wet, or windy it might be!

Date:

Astronomy

May. 14, 2014 Rise Set
Actual Time 5:50 AM PDT 7:50 PM PDT
Civil Twilight 5:22 AM PDT 8:18 PM PDT
Nautical Twilight 4:48 AM PDT 8:52 PM PDT
Astronomical Twilight 4:11 AM PDT 9:29 PM PDT
Moon 8:01 PM PDT (5/14) 5:51 AM PDT (5/14)
Length of Visible Light 14h 55m
Length of Day
13h 59m
Full, 100% of the Moon is Illuminated
May 14
Full
May 14
Full
May 21
Last Quarter
May 28
New
Jun 5
First Quarter

Hourly Weather History & Observations

Time (PDT) Temp. Windchill Dew Point Humidity Pressure Visibility Wind Dir Wind Speed Gust Speed Precip Events Conditions
12:15 AM 51.8 °F - 14.0 °F 22% 30.31 in 10.0 mi ESE 10.4 mph - N/A   Unknown
12:35 AM 50.0 °F - 15.8 °F 26% 30.31 in 10.0 mi ESE 10.4 mph - N/A   Clear
12:55 AM 48.2 °F - 15.8 °F 27% 30.30 in 10.0 mi SE 11.5 mph - N/A   Clear
1:15 AM 48.2 °F - 15.8 °F 27% 30.30 in 10.0 mi SE 8.1 mph - N/A   Clear
1:35 AM 48.2 °F - 17.6 °F 30% 30.31 in 10.0 mi SE 6.9 mph - N/A   Clear
1:55 AM 46.4 °F 44.3 °F 17.6 °F 32% 30.30 in - ESE 4.6 mph - N/A   Unknown
2:15 AM 46.4 °F 43.5 °F 17.6 °F 32% 30.30 in 10.0 mi ESE 5.8 mph - N/A   Clear
2:35 AM 46.4 °F 42.9 °F 15.8 °F 29% 30.30 in 10.0 mi ESE 6.9 mph - N/A   Clear
2:55 AM 44.6 °F 39.2 °F 15.8 °F 31% 30.30 in 10.0 mi SE 10.4 mph - N/A   Clear
3:15 AM 46.4 °F - 15.8 °F 29% 30.30 in 10.0 mi North - - N/A   Clear
3:35 AM 46.4 °F 41.5 °F 15.8 °F 29% 30.29 in 10.0 mi SE 10.4 mph - N/A   Clear
3:55 AM - - - N/A% - - North - - N/A   Unknown
4:15 AM 46.4 °F 41.5 °F 15.8 °F 29% 30.29 in 10.0 mi SE 10.4 mph - N/A   Unknown
4:35 AM 44.6 °F 39.2 °F 17.6 °F 34% 30.29 in 10.0 mi SE 10.4 mph - N/A   Clear
4:55 AM 44.6 °F 39.2 °F 17.6 °F 34% 30.29 in 10.0 mi SE 10.4 mph - N/A   Clear
5:15 AM 44.6 °F 39.7 °F 15.8 °F 31% 30.29 in 10.0 mi ESE 9.2 mph - N/A   Clear
5:35 AM 46.4 °F 41.1 °F 15.8 °F 29% 30.29 in 10.0 mi SE 11.5 mph - N/A   Clear
5:55 AM - - - N/A% 30.28 in - ESE 11.5 mph - N/A   Unknown
6:15 AM 46.4 °F 41.5 °F 15.8 °F 29% 30.29 in 10.0 mi SE 10.4 mph - N/A   Clear
6:35 AM 48.2 °F - 15.8 °F 27% 30.30 in 8.0 mi ESE 9.2 mph - N/A   Clear
6:55 AM 57.2 °F - 14.0 °F 18% 30.30 in 9.0 mi ESE 12.7 mph - N/A   Clear
7:35 AM 64.4 °F - 15.8 °F 15% 30.30 in 10.0 mi ESE 13.8 mph 23.0 mph N/A   Clear
7:55 AM 66.2 °F - 15.8 °F 14% 30.30 in 9.0 mi ESE 19.6 mph 25.3 mph N/A   Clear
8:15 AM 68.0 °F - 15.8 °F 13% 30.30 in 9.0 mi ESE 21.9 mph 29.9 mph N/A   Clear
8:35 AM 68.0 °F - 15.8 °F 13% 30.31 in 4.0 mi ESE 24.2 mph 33.4 mph N/A   Haze
8:55 AM 68.0 °F - 15.8 °F 13% 30.31 in 6.0 mi ESE 23.0 mph 34.5 mph N/A   Haze
9:15 AM 68.0 °F - 15.8 °F 13% 30.31 in 9.0 mi ESE 23.0 mph 33.4 mph N/A   Clear
9:55 AM 69.8 °F - 15.8 °F 13% 30.31 in 9.0 mi ESE 23.0 mph 34.5 mph N/A   Clear
10:35 AM 71.6 °F - 17.6 °F 13% 30.31 in 7.0 mi SE 24.2 mph 32.2 mph N/A   Clear
10:55 AM 71.6 °F - 17.6 °F 13% 30.31 in 9.0 mi SE 20.7 mph 29.9 mph N/A   Clear
11:15 AM 71.6 °F - 17.6 °F 13% 30.31 in 9.0 mi SE 23.0 mph 33.4 mph N/A   Clear
11:35 AM 73.4 °F - 17.6 °F 12% 30.31 in 9.0 mi SE 18.4 mph 28.8 mph N/A   Clear
11:55 AM 75.2 °F - 15.8 °F 11% 30.31 in 10.0 mi SE 18.4 mph 27.6 mph N/A   Clear
12:15 PM 75.2 °F - 15.8 °F 11% 30.30 in 10.0 mi ESE 19.6 mph 26.5 mph N/A   Clear
12:35 PM 75.2 °F - 15.8 °F 11% 30.29 in 9.0 mi ESE 19.6 mph 34.5 mph N/A   Clear
12:55 PM 77.0 °F - 15.8 °F 10% 30.29 in 9.0 mi ESE 16.1 mph 26.5 mph N/A   Clear
1:15 PM 77.0 °F - 17.6 °F 11% 30.28 in 10.0 mi SE 20.7 mph 28.8 mph N/A   Clear
1:35 PM 80.6 °F - 15.8 °F 9% 30.28 in 10.0 mi East 16.1 mph 24.2 mph N/A   Clear
1:55 PM 78.8 °F - 15.8 °F 9% 30.28 in 9.0 mi East 18.4 mph 25.3 mph N/A   Clear
2:15 PM 80.6 °F - 14.0 °F 8% 30.28 in 10.0 mi East 15.0 mph 24.2 mph N/A   Clear
2:35 PM 80.6 °F - 14.0 °F 8% 30.27 in 10.0 mi East 11.5 mph 19.6 mph N/A   Clear
2:55 PM 80.6 °F - 14.0 °F 8% 30.27 in 10.0 mi ESE 12.7 mph 19.6 mph N/A   Clear
3:15 PM 80.6 °F - 14.0 °F 8% 30.27 in 10.0 mi East 11.5 mph 19.6 mph N/A   Clear
3:35 PM 80.6 °F - 15.8 °F 9% 30.26 in 10.0 mi ESE 15.0 mph 21.9 mph N/A   Clear
3:55 PM 78.8 °F - 15.8 °F 9% 30.25 in 10.0 mi ESE 15.0 mph 20.7 mph N/A   Clear
4:15 PM 80.6 °F - 15.8 °F 9% 30.24 in 10.0 mi SE 16.1 mph 21.9 mph N/A   Clear
4:35 PM 78.8 °F - 14.0 °F 9% 30.24 in 10.0 mi SE 11.5 mph 20.7 mph N/A   Clear
4:55 PM 78.8 °F - 15.8 °F 9% 30.24 in 10.0 mi SE 13.8 mph 21.9 mph N/A   Clear
5:15 PM 78.8 °F - 15.8 °F 9% 30.23 in 10.0 mi SSE 9.2 mph 18.4 mph N/A   Clear
5:35 PM 77.0 °F - 15.8 °F 10% 30.23 in 10.0 mi SE 13.8 mph 18.4 mph N/A   Clear
5:55 PM 77.0 °F - 14.0 °F 9% 30.23 in 9.0 mi SE 11.5 mph - N/A   Clear
6:15 PM 77.0 °F - 15.8 °F 10% 30.22 in 10.0 mi ESE 11.5 mph 19.6 mph N/A   Clear
6:35 PM 77.0 °F - 15.8 °F 10% 30.22 in 10.0 mi SE 11.5 mph - N/A   Clear
6:55 PM 75.2 °F - 15.8 °F 11% 30.22 in 10.0 mi SE 11.5 mph - N/A   Clear
7:15 PM 73.4 °F - 17.6 °F 12% 30.22 in 10.0 mi SE 8.1 mph - N/A   Clear
7:35 PM 69.8 °F - 21.2 °F 16% 30.22 in 10.0 mi SE 5.8 mph - N/A   Clear
7:55 PM 68.0 °F - 21.2 °F 17% 30.23 in 10.0 mi East 4.6 mph - N/A   Clear
8:15 PM 66.2 °F - 19.4 °F 17% 30.24 in 10.0 mi ESE 4.6 mph - N/A   Clear
8:35 PM 60.8 °F - 24.8 °F 25% 30.25 in 10.0 mi ESE 3.5 mph - N/A   Clear
8:55 PM 59.0 °F - 17.6 °F 20% 30.25 in 10.0 mi NE 3.5 mph - N/A   Clear
9:15 PM 57.2 °F - 26.6 °F 31% 30.25 in 10.0 mi SE 5.8 mph - N/A   Clear
9:35 PM 55.4 °F - 24.8 °F 31% 30.26 in 10.0 mi South 3.5 mph - N/A   Clear
9:55 PM 55.4 °F - 24.8 °F 31% 30.27 in 10.0 mi SE 5.8 mph - N/A   Clear
10:15 PM 55.4 °F - 21.2 °F 26% 30.27 in 10.0 mi Calm Calm - N/A   Clear
10:35 PM 51.8 °F - 24.8 °F 35% 30.27 in 10.0 mi East 4.6 mph - N/A   Clear
10:55 PM 53.6 °F - 24.8 °F 33% 30.27 in 10.0 mi ESE 4.6 mph - N/A   Clear
11:15 PM 53.6 °F - 17.6 °F 24% 30.27 in 10.0 mi East 3.5 mph - N/A   Clear
11:35 PM 51.8 °F - 19.4 °F 28% 30.27 in 10.0 mi Calm Calm - N/A   Clear
11:55 PM 50.0 °F - 19.4 °F 30% 30.27 in 10.0 mi Calm Calm - N/A   Clear